Regional Weather Roundup
Issued by NWS Midland/Odessa, TX

Skip options and go directly to product.
Home | Oldest Version | Previous Version | Current Version | All | Text Only | Save Text | Print | Product List | Glossary Off

Skip product version selection by date and time.   

365
ASUS44 KMAF 221310
RWRMAF
MIDLAND AREA WEATHER ROUNDUP
NATIONAL WEATHER SERVICE MIDLAND TX
800 AM CDT FRI AUG 22 2014

...IN SOUTHWEST TEXAS AND SOUTHEAST NEW MEXICO...

CITY           SKY/WX    TMP DP  RH WIND       PRES   REMARKS
ALPINE         CLEAR     68  59  72 S7        30.22R
ANDREWS        FAIR      75  60  60 S12G17    30.09R
ARTESIA        MOCLDY    75  57  53 SW10G17   30.08R
BIG SPRING     CLEAR     79  61  54 S14       30.09R
CARLSBAD       MOCLDY    78  59  51 W15       30.06R
DRYDEN           N/A     77  62  59 E8        30.05R
FORT STOCKTON  CLEAR     73  61  65 SE9       30.08R
GUAD PASS      MOCLDY    66  57  72 W28G45    30.18S
HOBBS          CLEAR     70  63  78 S8        30.11R
MARFA          PTCLDY    63  57  82 CALM      30.21R
MIDLAND AIRPK  CLEAR     78  61  56 S5        30.08R
MIDLAND INTL   CLEAR     76  62  62 S7        30.08R
ODESSA         CLEAR     73  63  70 SW6       30.09R
PECOS          PTCLDY    73  63  69 CALM      30.05S
PRESIDIO       FAIR      72  68  86 CALM      30.06R
SEMINOLE       CLEAR     72  62  70 S8        30.10R
SNYDER         CLEAR     76  64  65 S10       30.07R
WINK           PTCLDY    75  66  73 SE3       30.05R
$$
...OTHER STATIONS IN TEXAS...

CITY           SKY/WX    TMP DP  RH WIND       PRES   REMARKS
ABILENE        SUNNY     78  69  73 S8        30.06R
AMARILLO       PTCLDY    74  63  68 SW17      30.05S
AUSTIN         MOSUNNY   80  75  84 S7        30.06S
BROWNSVILLE    SUNNY     77  76  96 SE5       30.05R
CORPUS CHRISTI MOSUNNY   79  77  94 S3        30.04R
DALLAS FTW     MOSUNNY   80  73  79 S15       30.04S
DEL RIO        CLEAR     78  67  68 E13       30.02R
EL PASO        LGT RAIN  65  62  90 N9        30.12F
HOUSTON INT    MOSUNNY   79  77  94 CALM      30.08R
LUBBOCK        PTCLDY    76  61  59 S14       30.08R
SAN ANGELO     CLEAR     76  68  76 S12G20    30.06R
SAN ANTONIO    MOSUNNY   79  73  82 S9        30.07S
WACO           SUNNY     79  73  82 S10       30.07R
WICHITA FALLS  NOT AVBL
$$
...OTHER LOCATIONS IN NEW MEXICO...

CITY           SKY/WX    TMP DP  RH WIND       PRES   REMARKS
ALAMAGORDO     LGT RAIN  64  64 100 S10G18    30.21R
ALBUQUERQUE    CLOUDY    69  47  45 SW9       30.20R
CANNON AFB     PTCLDY    70  61  74 S6        30.10R
CLOVIS           N/A     66  61  82 SW6       30.12R
HOLLOMAN AFB   MOCLDY    66  66 100 S12       30.18R
ROSWELL        PTCLDY    74  59  59 S7        30.05R
RUIDOSO        LGT RAIN  59  54  82 S8        30.30R
SANTA FE       LGT RAIN  60  48  64 SW7       30.21R
TRUTH OR CONSE LGT RAIN  64  62  93 S6        30.18R
TUCUMCARI      MOCLDY    75  57  53 W8        30.05R
$$

USA.gov is the U.S. government's official web portal to all federal, state and local government web resources and services.